Regional Weather Roundup
Issued by NWS Newport/Morehead, NC

Current Version | Previous Version | Text Only | Print | Product List | Glossary On
Versions: 1 2 3 4 5 6 7 8 9 10 11 12 13 14 15 16 17 18 19 20 21 22 23 24 25 26 27 28 29 30 31 32 33 34 35 36 37 38 39 40 41 42 43 44 45 46 47 48 49 50
000 ASUS42 KMHX 251313 RWRMHX WEATHER ROUNDUP FOR EASTERN NORTH CAROLINA NATIONAL WEATHER SERVICE NEWPORT/MOREHEAD CITY NC 900 AM EDT MON SEP 25 2017 NOTE: "FAIR" INDICATES FEW OR NO CLOUDS BELOW 12,000 FEET WITH NO SIGNIFICANT WEATHER AND/OR OBSTRUCTIONS TO VISIBILITY NCZ015>017-031-032-045>047-102-103-251400- NORTH COAST CITY SKY/WX TMP DP RH WIND PRES REMARKS EDENTON MOSUNNY 74 70 87 NE10 29.97F ELIZABETH CITY CLOUDY 74 71 91 NE18 29.98R KITTY HAWK PTSUNNY 72 67 84 NE8G20 29.95R MANTEO CLOUDY 73 69 88 NE15 29.96R $$ NCZ045>047-081-094-103-104-251400- CENTRAL COAST CITY SKY/WX TMP DP RH WIND PRES REMARKS FRISCO CLOUDY 76 73 91 NE10G24 29.91S $$ NCZ095-097-098-100-101-251400- SOUTHERN COAST CITY SKY/WX TMP DP RH WIND PRES REMARKS BEAUFORT CLOUDY 75 73 93 NE12 29.90R CEDAR ISLAND NOT AVBL JACKSONVILLE CLOUDY 72 70 93 N9 29.92R PINEY ISLAND NOT AVBL WILMINGTON CLOUDY 72 68 87 N10 29.92S $$ NCZ011>013-027>030-043-044-078>080-089-090>093-098-251400- COASTAL PLAIN CITY SKY/WX TMP DP RH WIND PRES REMARKS AHOSKIE CLOUDY 69 67 94 N8 30.00S CLINTON CLOUDY 68 66 95 N6 29.97S ELIZABETHTOWN NOT AVBL GOLDSBORO CLOUDY 69 69 100 NE8 29.96R GREENVILLE CLOUDY 70 68 94 NE8 29.98F HAVELOCK CLOUDY 75 71 87 NE15 29.93S KENANSVILLE CLOUDY 70 66 88 N8 29.95S KINSTON CLOUDY 70 66 88 N9G16 29.96S NEW BERN CLOUDY 73 70 90 NE12 29.95R RICHLANDS CLOUDY 71 68 90 NE9 29.95R ROCKY MOUNT CLOUDY 68 67 96 NE8 30.00R WASHINGTON CLOUDY 71 68 90 N7 29.96S WHITEVILLE CLOUDY 69 66 90 N5 29.95S $$ AMZ130-135-150-152-154-156-158-170-250-252-270-ANZ085-086-088-633-658-670-251400- MARINE OBSERVATIONS STATION/POSITION TIME TEMP WIND PRES WAVE SWELL AIR SEA DIR/SP/G HT/PER HT/PER (UTC) (F) (DEG/KT/KT) (MB) (FT/S) (FT/S) CHESAPEAKE LIGHT NOT AVBL 64 E VA BEACH 1150 71 70 50/ 16/ 17 1015.1 11/15 11/15 DUCK 1242 72 76 40/ 22/ 25 1014.3 2 E DUCK 1300 75 N/A 7/14 5/14 OREGON INLET 1242 73 76 30/ 16/ 22 1013.7 13E OREGON INLT 1248 75 N/A 9/14 10/14 HATTERAS CG 1242 74 77 40/ 15/ 22 1012.6 DIAMOND BUOY 1150 75 76 30/ 21/ 27 1011.2 11/15 10/15 CAPE LOOKOUT 1200 75 30/ 23/ 26 1011.8 BEAUFORT LAB 1242 74 75 20/ 12/ 16 1012.0 30 SE NEW RVR IN 1208 76 40/ 21/ 27 1011.0 30 SE NEW RVR IN NOT AVBL 27 SE WRIGHTSVLE 1208 76 80 60/ 21/ 31 1011.0 5 SE WRIGHTSVLE 1208 74 78 40/ 14/ 27 1012.2 225 S CAPE HAT 1150 80 81 10/ 35/ 47 996.4 24/12 16/12 41 SE CHARLESTON 1250 77 80 10/ 16/ 19 1011.8 10/11 8/11 $$

USA.gov is the U.S. government's official web portal to all federal, state and local government web resources and services.